Dades meteomassalio
Diari Summary for Maig 27, 2017 Units:  English    Metric   Both
« Previous Day
Next Day »
Diari Semanal Mensual Anual Personalitzat
  Maxima: Minima: Mijana:
Temperatura: TemperatureC °F 14.5 °F 22.6 °F
Rosada: DewpointC °F 11.9 °F 14.2 °F
Humitat: Humidity % 40 % 61 %
Velocitat del vent: WindSpeedKMH mph 0.0 mph 9.7 mph
Racha vent: WindSpeedGustKMH mph - -
Vent:- - ESE
Pressio: PressurehPa in 1012.8 in -
Pluja: 0.0 in    
Historical Graphs
 
 
Tabular Data for Maig 27, 2017
Time Temperature Dew Point Pressure Wind Wind Speed Wind Gust Humidity Rainfall Rate (Hourly) solar Conditions
TemperatureC °F DewpointC °F PressurehPa in Calm     Humidity % HourlyPrecipMM in SolarRadiationWatts/m^2 W/m2 Conditions
00:02 20.2 °F 14.8 °F 1013.1 in Calm     71 % 0.0 in 0.0 W/m2 CLR
00:07 20.2 °F 14.8 °F 1012.8 in Calm     71 % 0.0 in 0.0 W/m2 CLR
00:12 20.2 °F 15.0 °F 1012.8 in Calm     72 % 0.0 in 0.0 W/m2 CLR
00:17 20.2 °F 14.7 °F 1012.8 in Calm     71 % 0.0 in 0.0 W/m2 CLR
00:22 20.1 °F 14.7 °F 1013.1 in Calm     71 % 0.0 in 0.0 W/m2 CLR
00:27 20.1 °F 14.9 °F 1013.1 in Calm     72 % 0.0 in 0.0 W/m2 CLR
00:32 20.0 °F 15.0 °F 1013.1 in Calm     73 % 0.0 in 0.0 W/m2 CLR
00:42 19.8 °F 14.8 °F 1013.1 in Calm     73 % 0.0 in 0.0 W/m2 CLR
00:47 19.7 °F 14.9 °F 1013.1 in Calm     74 % 0.0 in 0.0 W/m2 CLR
00:52 19.6 °F 14.8 °F 1013.1 in Calm     74 % 0.0 in 0.0 W/m2 CLR
00:57 19.4 °F 14.6 °F 1013.1 in Calm     74 % 0.0 in 0.0 W/m2 CLR
01:02 19.1 °F 14.6 °F 1013.1 in Calm     75 % 0.0 in 0.0 W/m2 CLR
01:07 18.9 °F 14.8 °F 1013.4 in Calm     77 % 0.0 in 0.0 W/m2 CLR
01:12 18.9 °F 14.8 °F 1013.4 in Calm     77 % 0.0 in 0.0 W/m2 CLR
01:17 18.9 °F 14.8 °F 1013.1 in Calm     77 % 0.0 in 0.0 W/m2 CLR
01:22 19.0 °F 14.9 °F 1013.4 in Calm     77 % 0.0 in 0.0 W/m2 CLR
01:27 19.1 °F 15.0 °F 1013.4 in Calm     77 % 0.0 in 0.0 W/m2 CLR
01:32 19.1 °F 14.8 °F 1013.4 in Calm     76 % 0.0 in 0.0 W/m2 CLR
01:37 19.1 °F 14.8 °F 1013.4 in Calm     76 % 0.0 in 0.0 W/m2 CLR
01:42 19.1 °F 14.8 °F 1013.4 in Calm     76 % 0.0 in 0.0 W/m2 CLR
01:47 19.1 °F 14.7 °F 1013.4 in Calm     76 % 0.0 in 0.0 W/m2 CLR
01:52 19.0 °F 14.7 °F 1013.4 in Calm     76 % 0.0 in 0.0 W/m2 CLR
01:57 18.9 °F 14.6 °F 1013.4 in Calm     76 % 0.0 in 0.0 W/m2 CLR
02:02 18.9 °F 14.6 °F 1013.4 in Calm     76 % 0.0 in 0.0 W/m2 CLR
02:07 18.8 °F 14.7 °F 1013.4 in Calm     77 % 0.0 in 0.0 W/m2 CLR
02:08 18.8 °F 14.7 °F 1013.8 in Calm     77 % 0.0 in 0.0 W/m2 CLR
02:13 18.7 °F 14.6 °F 1013.8 in Calm     77 % 0.0 in 0.0 W/m2 CLR
02:18 18.6 °F 14.7 °F 1013.8 in Calm     78 % 0.0 in 0.0 W/m2 CLR
02:23 18.5 °F 14.4 °F 1013.8 in Calm     77 % 0.0 in 0.0 W/m2 CLR
02:28 18.3 °F 14.4 °F 1013.8 in Calm     78 % 0.0 in 0.0 W/m2 CLR
02:33 18.4 °F 14.7 °F 1014.1 in Calm     79 % 0.0 in 0.0 W/m2 CLR
02:38 18.4 °F 14.7 °F 1013.8 in Calm     79 % 0.0 in 0.0 W/m2 CLR
02:43 18.4 °F 14.7 °F 1014.1 in Calm     79 % 0.0 in 0.0 W/m2 CLR
02:48 18.3 °F 14.6 °F 1014.1 in Calm     79 % 0.0 in 0.0 W/m2 CLR
02:53 18.3 °F 14.8 °F 1013.8 in Calm     80 % 0.0 in 0.0 W/m2 CLR
02:58 18.3 °F 14.8 °F 1014.1 in Calm     80 % 0.0 in 0.0 W/m2 CLR
03:03 18.2 °F 14.7 °F 1014.1 in Calm     80 % 0.0 in 0.0 W/m2 CLR
03:08 18.2 °F 14.7 °F 1014.1 in Calm     80 % 0.0 in 0.0 W/m2 CLR
03:13 17.8 °F 14.2 °F 1014.4 in Calm     79 % 0.0 in 0.0 W/m2 CLR
03:18 17.7 °F 14.4 °F 1014.4 in Calm     81 % 0.0 in 0.0 W/m2 CLR
03:23 17.7 °F 14.6 °F 1014.4 in Calm     82 % 0.0 in 0.0 W/m2 CLR
03:28 17.7 °F 14.6 °F 1014.4 in Calm     82 % 0.0 in 0.0 W/m2 CLR
03:33 17.7 °F 14.6 °F 1014.4 in Calm     82 % 0.0 in 0.0 W/m2 CLR
03:38 17.7 °F 14.4 °F 1014.4 in Calm     81 % 0.0 in 0.0 W/m2 CLR
03:43 17.6 °F 14.3 °F 1014.4 in Calm     81 % 0.0 in 0.0 W/m2 CLR
03:48 17.4 °F 14.2 °F 1014.4 in Calm     81 % 0.0 in 0.0 W/m2 CLR
03:53 17.2 °F 13.9 °F 1014.8 in Calm     81 % 0.0 in 0.0 W/m2 CLR
04:03 17.0 °F 14.1 °F 1014.8 in Calm     83 % 0.0 in 0.0 W/m2 CLR
04:08 16.9 °F 14.0 °F 1014.8 in Calm     83 % 0.0 in 0.0 W/m2 CLR
04:13 16.8 °F 13.7 °F 1014.8 in Calm     82 % 0.0 in 0.0 W/m2 CLR
04:18 16.7 °F 13.8 °F 1014.8 in Calm     83 % 0.0 in 0.0 W/m2 CLR
04:23 16.6 °F 13.7 °F 1014.8 in Calm     83 % 0.0 in 0.0 W/m2 CLR
04:28 16.5 °F 13.6 °F 1014.8 in Calm     83 % 0.0 in 0.0 W/m2 CLR
04:33 16.4 °F 13.5 °F 1014.8 in Calm     83 % 0.0 in 0.0 W/m2 CLR
04:38 16.3 °F 13.4 °F 1014.8 in Calm     83 % 0.0 in 0.0 W/m2 CLR
04:43 16.3 °F 13.6 °F 1014.8 in Calm     84 % 0.0 in 0.0 W/m2 CLR
04:48 16.3 °F 13.6 °F 1014.8 in Calm     84 % 0.0 in 0.0 W/m2 CLR
04:53 16.2 °F 13.3 °F 1014.8 in Calm     83 % 0.0 in 0.0 W/m2 CLR
04:58 16.1 °F 13.2 °F 1014.8 in Calm     83 % 0.0 in 0.0 W/m2 CLR
05:03 16.1 °F 13.2 °F 1014.8 in Calm     83 % 0.0 in 0.0 W/m2 CLR
05:08 15.9 °F 13.2 °F 1014.8 in Calm     84 % 0.0 in 0.0 W/m2 CLR
05:13 15.9 °F 13.2 °F 1014.8 in Calm     84 % 0.0 in 0.0 W/m2 CLR
05:18 15.9 °F 13.2 °F 1014.8 in Calm     84 % 0.0 in 0.0 W/m2 CLR
05:23 15.8 °F 12.9 °F 1015.1 in Calm     83 % 0.0 in 0.0 W/m2 CLR
05:28 15.7 °F 12.8 °F 1015.1 in Calm     83 % 0.0 in 0.0 W/m2 CLR
05:33 15.7 °F 12.8 °F 1015.1 in Calm     83 % 0.0 in 0.0 W/m2 CLR
05:38 15.6 °F 12.7 °F 1015.1 in Calm     83 % 0.0 in 0.0 W/m2 CLR
05:43 15.6 °F 12.9 °F 1015.1 in Calm     84 % 0.0 in 0.0 W/m2 CLR
05:48 15.4 °F 12.6 °F 1015.1 in Calm     83 % 0.0 in 0.0 W/m2 CLR
05:53 15.3 °F 12.4 °F 1015.1 in Calm     83 % 0.0 in 0.0 W/m2 CLR
05:58 15.2 °F 12.6 °F 1015.1 in Calm     84 % 0.0 in 0.0 W/m2 CLR
06:03 15.2 °F 12.7 °F 1015.1 in Calm     85 % 0.0 in 0.0 W/m2 CLR
06:08 15.1 °F 12.4 °F 1015.1 in Calm     84 % 0.0 in 0.0 W/m2 CLR
06:13 15.0 °F 12.3 °F 1015.1 in Calm     84 % 0.0 in 0.0 W/m2 CLR
06:18 14.8 °F 12.2 °F 1015.1 in Calm     84 % 0.0 in 0.0 W/m2 CLR
06:23 14.7 °F 12.1 °F 1015.1 in Calm     84 % 0.0 in 0.0 W/m2 OVC
06:28 14.7 °F 12.0 °F 1015.5 in Calm     84 % 0.0 in 0.0 W/m2 OVC
06:33 14.7 °F 12.2 °F 1015.5 in Calm     85 % 0.0 in 0.0 W/m2 OVC
06:38 14.7 °F 12.2 °F 1015.5 in Calm     85 % 0.0 in 5.0 W/m2 OVC
06:43 14.7 °F 12.0 °F 1015.5 in Calm     84 % 0.0 in 9.0 W/m2 BKN
06:48 14.6 °F 11.9 °F 1015.5 in Calm     84 % 0.0 in 11.0 W/m2 BKN
06:53 14.5 °F 12.0 °F 1015.5 in Calm     85 % 0.0 in 14.0 W/m2 BKN
06:58 14.5 °F 12.0 °F 1015.8 in Calm     85 % 0.0 in 19.0 W/m2 BKN
07:04 14.5 °F 12.0 °F 1015.8 in Calm     85 % 0.0 in 23.0 W/m2 BKN
07:09 14.6 °F 12.2 °F 1015.8 in Calm     86 % 0.0 in 26.0 W/m2 BKN
07:14 14.5 °F 12.0 °F 1015.8 in Calm     85 % 0.0 in 33.0 W/m2 BKN
07:19 14.5 °F 12.2 °F 1015.8 in Calm     86 % 0.0 in 40.0 W/m2 BKN
07:24 14.6 °F 12.1 °F 1015.8 in Calm     85 % 0.0 in 53.0 W/m2 SCT
07:29 14.7 °F 12.2 °F 1015.8 in Calm     85 % 0.0 in 60.0 W/m2 SCT
07:34 14.8 °F 12.3 °F 1015.8 in Calm     85 % 0.0 in 58.0 W/m2 SCT
07:35 14.8 °F 12.3 °F 1015.8 in Calm     85 % 0.0 in 65.0 W/m2 SCT
07:40 15.1 °F 12.6 °F 1015.8 in Calm     85 % 0.0 in 97.0 W/m2 FEW
07:45 15.2 °F 12.6 °F 1015.8 in Calm     84 % 0.0 in 113.0 W/m2 CLR
07:50 15.4 °F 12.8 °F 1015.8 in Calm     84 % 0.0 in 127.0 W/m2 CLR
07:55 15.8 °F 12.9 °F 1015.8 in Calm     83 % 0.0 in 141.0 W/m2 CLR
08:00 16.2 °F 13.2 °F 1015.8 in Calm     82 % 0.0 in 156.0 W/m2 CLR
08:05 16.5 °F 13.2 °F 1015.8 in Calm     81 % 0.0 in 174.0 W/m2 CLR
08:10 16.9 °F 13.4 °F 1015.8 in Calm     80 % 0.0 in 192.0 W/m2 CLR
08:15 17.3 °F 13.6 °F 1015.8 in Calm     79 % 0.0 in 207.0 W/m2 CLR
08:20 17.7 °F 13.8 °F 1015.8 in Calm     78 % 0.0 in 223.0 W/m2 CLR
08:25 18.1 °F 14.2 °F 1015.8 in Calm     78 % 0.0 in 243.0 W/m2 CLR
08:26 18.1 °F 14.2 °F 1015.8 in Calm     78 % 0.0 in 243.0 W/m2 CLR
08:31 18.6 °F 14.7 °F 1016.1 in Calm     78 % 0.0 in 260.0 W/m2 CLR
08:36 19.0 °F 14.9 °F 1016.1 in Calm     77 % 0.0 in 278.0 W/m2 CLR
08:41 19.4 °F 14.8 °F 1015.8 in Calm     75 % 0.0 in 297.0 W/m2 CLR
08:46 19.6 °F 15.0 °F 1015.8 in Calm     75 % 0.0 in 313.0 W/m2 CLR
08:51 19.7 °F 14.9 °F 1015.8 in Calm     74 % 0.0 in 329.0 W/m2 CLR
08:56 20.0 °F 15.2 °F 1015.8 in Calm     74 % 0.0 in 345.0 W/m2 CLR
08:58 20.1 °F 15.1 °F 1015.8 in Calm     73 % 0.0 in 348.0 W/m2 CLR
09:03 20.3 °F 15.1 °F 1015.8 in Calm     72 % 0.0 in 362.0 W/m2 CLR
09:08 20.6 °F 15.4 °F 1015.8 in Calm     72 % 0.0 in 376.0 W/m2 CLR
09:13 20.9 °F 15.5 °F 1015.8 in Calm     71 % 0.0 in 373.0 W/m2 CLR
09:18 21.2 °F 15.6 °F 1015.8 in Calm     70 % 0.0 in 353.0 W/m2 CLR
09:23 21.5 °F 15.6 °F 1015.8 in Calm     69 % 0.0 in 420.0 W/m2 CLR
09:28 21.8 °F 15.6 °F 1015.8 in Calm     68 % 0.0 in 439.0 W/m2 CLR
09:33 22.1 °F 15.4 °F 1015.8 in ENE 5.6 mph 5.6 mph 66 % 0.0 in 455.0 W/m2 CLR
09:38 22.3 °F 15.4 °F 1015.8 in ENE 9.3 mph 9.3 mph 65 % 0.0 in 469.0 W/m2 CLR
09:43 22.6 °F 15.4 °F 1015.8 in ESE 9.3 mph 9.3 mph 64 % 0.0 in 485.0 W/m2 CLR
09:48 22.6 °F 15.2 °F 1015.8 in East 7.4 mph 7.4 mph 63 % 0.0 in 503.0 W/m2 CLR
09:53 22.6 °F 15.4 °F 1015.8 in ENE 9.3 mph 9.3 mph 64 % 0.0 in 494.0 W/m2 CLR
09:58 22.8 °F 15.6 °F 1015.8 in SE 9.3 mph 9.3 mph 64 % 0.0 in 529.0 W/m2 CLR
10:03 22.8 °F 15.4 °F 1015.8 in East 13.0 mph 13.0 mph 63 % 0.0 in 540.0 W/m2 CLR
10:08 22.9 °F 15.3 °F 1015.8 in ENE 9.3 mph 9.3 mph 62 % 0.0 in 548.0 W/m2 CLR
10:13 23.2 °F 15.2 °F 1015.8 in East 7.4 mph 7.4 mph 61 % 0.0 in 564.0 W/m2 CLR
10:18 23.3 °F 15.1 °F 1015.8 in ESE 9.3 mph 9.3 mph 60 % 0.0 in 575.0 W/m2 CLR
10:23 23.5 °F 15.3 °F 1015.8 in ESE 13.0 mph 13.0 mph 60 % 0.0 in 599.0 W/m2 CLR
10:28 23.6 °F 14.9 °F 1015.8 in ESE 11.1 mph 11.1 mph 58 % 0.0 in 615.0 W/m2 CLR
10:33 23.7 °F 14.9 °F 1015.8 in ESE 11.1 mph 11.1 mph 58 % 0.0 in 628.0 W/m2 CLR
10:38 23.8 °F 14.5 °F 1015.8 in East 5.6 mph 5.6 mph 56 % 0.0 in 640.0 W/m2 CLR
10:43 24.1 °F 15.0 °F 1015.8 in ESE 7.4 mph 7.4 mph 57 % 0.0 in 650.0 W/m2 CLR
10:48 24.3 °F 15.0 °F 1015.8 in ESE 9.3 mph 9.3 mph 56 % 0.0 in 664.0 W/m2 CLR
10:53 24.7 °F 15.1 °F 1015.8 in East 12.9 mph 12.9 mph 55 % 0.0 in 680.0 W/m2 CLR
10:58 25.1 °F 14.8 °F 1015.8 in NE 9.7 mph 9.7 mph 53 % 0.0 in 691.0 W/m2 CLR
11:03 25.5 °F 14.9 °F 1015.5 in ENE 13.0 mph 13.0 mph 52 % 0.0 in 707.0 W/m2 CLR
11:08 25.7 °F 14.4 °F 1015.5 in NE 9.3 mph 9.3 mph 50 % 0.0 in 721.0 W/m2 CLR
11:13 25.9 °F 14.7 °F 1015.5 in NNE 5.6 mph 5.6 mph 50 % 0.0 in 737.0 W/m2 CLR
11:18 26.1 °F 15.1 °F 1015.5 in ESE 9.7 mph 9.7 mph 51 % 0.0 in 747.0 W/m2 CLR
11:23 26.1 °F 14.9 °F 1015.5 in East 11.1 mph 11.1 mph 50 % 0.0 in 758.0 W/m2 CLR
11:28 26.2 °F 15.0 °F 1015.5 in ENE 13.0 mph 13.0 mph 50 % 0.0 in 758.0 W/m2 CLR
11:33 26.1 °F 14.5 °F 1015.5 in East 11.1 mph 11.1 mph 49 % 0.0 in 784.0 W/m2 CLR
11:38 26.1 °F 14.9 °F 1015.8 in East 1.6 mph   50 % 0.0 in 795.0 W/m2 CLR
11:43 26.3 °F 14.7 °F 1015.5 in NE 9.7 mph 9.7 mph 49 % 0.0 in 775.0 W/m2 CLR
11:48 26.5 °F 14.6 °F 1015.8 in ENE 16.7 mph 16.7 mph 48 % 0.0 in 810.0 W/m2 CLR
11:53 26.7 °F 14.4 °F 1015.5 in NE 5.6 mph 5.6 mph 47 % 0.0 in 812.0 W/m2 CLR
11:58 26.9 °F 14.3 °F 1015.5 in East 8.0 mph 8.0 mph 46 % 0.0 in 817.0 W/m2 CLR
12:03 27.2 °F 14.9 °F 1015.5 in ENE 12.9 mph 12.9 mph 47 % 0.0 in 837.0 W/m2 CLR
12:08 26.9 °F 14.3 °F 1015.5 in Calm     46 % 0.0 in 826.0 W/m2 CLR
12:13 27.1 °F 14.2 °F 1015.5 in East 13.0 mph 13.0 mph 45 % 0.0 in 800.0 W/m2 CLR
12:18 27.4 °F 14.4 °F 1015.5 in ENE 9.3 mph 9.3 mph 45 % 0.0 in 805.0 W/m2 CLR
12:23 27.3 °F 15.1 °F 1015.5 in ESE 16.7 mph 16.7 mph 47 % 0.0 in 846.0 W/m2 CLR
12:28 27.2 °F 15.2 °F 1015.5 in ENE 13.0 mph 13.0 mph 48 % 0.0 in 865.0 W/m2 CLR
12:33 27.1 °F 14.8 °F 1015.5 in SE 18.5 mph 18.5 mph 47 % 0.0 in 888.0 W/m2 CLR
12:38 27.1 °F 14.4 °F 1015.5 in ESE 13.0 mph 13.0 mph 46 % 0.0 in 891.0 W/m2 CLR
12:43 27.1 °F 14.5 °F 1015.5 in SE 13.0 mph 13.0 mph 46 % 0.0 in 884.0 W/m2 CLR
12:48 27.3 °F 14.7 °F 1015.5 in SE 13.0 mph 13.0 mph 46 % 0.0 in 837.0 W/m2 CLR
12:53 27.4 °F 14.8 °F 1015.5 in ESE 14.5 mph 14.5 mph 46 % 0.0 in 879.0 W/m2 CLR
12:58 27.4 °F 15.1 °F 1015.5 in ESE 13.0 mph 13.0 mph 47 % 0.0 in 893.0 W/m2 CLR
13:03 27.7 °F 14.7 °F 1015.5 in ESE 16.7 mph 16.7 mph 45 % 0.0 in 879.0 W/m2 CLR
13:08 27.6 °F 14.9 °F 1015.5 in East 14.8 mph 14.8 mph 46 % 0.0 in 902.0 W/m2 CLR
13:13 27.6 °F 14.9 °F 1015.1 in East 16.7 mph 16.7 mph 46 % 0.0 in 898.0 W/m2 CLR
13:18 27.6 °F 14.9 °F 1015.1 in East 18.5 mph 18.5 mph 46 % 0.0 in 909.0 W/m2 CLR
13:23 27.7 °F 14.7 °F 1015.1 in East 18.5 mph 18.5 mph 45 % 0.0 in 912.0 W/m2 CLR
13:28 27.8 °F 15.1 °F 1015.1 in ESE 14.8 mph 14.8 mph 46 % 0.0 in 905.0 W/m2 CLR
13:33 27.5 °F 14.8 °F 1015.1 in ESE 18.5 mph 18.5 mph 46 % 0.0 in 911.0 W/m2 CLR
13:38 27.4 °F 15.1 °F 1015.1 in ESE 20.4 mph 20.4 mph 47 % 0.0 in 911.0 W/m2 CLR
13:43 27.6 °F 14.9 °F 1015.1 in East 20.4 mph 20.4 mph 46 % 0.0 in 918.0 W/m2 CLR
13:48 27.5 °F 14.8 °F 1015.1 in SE 24.1 mph 24.1 mph 46 % 0.0 in 919.0 W/m2 CLR
13:54 27.6 °F 14.9 °F 1015.1 in ESE 27.8 mph 27.8 mph 46 % 0.0 in 914.0 W/m2 CLR
13:59 27.7 °F 15.1 °F 1015.1 in ESE 18.5 mph 18.5 mph 46 % 0.0 in 914.0 W/m2 CLR
14:04 27.8 °F 15.1 °F 1015.1 in ENE 25.9 mph 25.9 mph 46 % 0.0 in 921.0 W/m2 CLR
14:09 27.4 °F 15.1 °F 1014.8 in East 22.2 mph 22.2 mph 47 % 0.0 in 925.0 W/m2 CLR
14:14 27.5 °F 15.2 °F 1015.1 in East 20.4 mph 20.4 mph 47 % 0.0 in 923.0 W/m2 CLR
14:19 27.9 °F 15.2 °F 1014.8 in East 22.5 mph 22.5 mph 46 % 0.0 in 919.0 W/m2 CLR
14:24 27.9 °F 15.2 °F 1014.8 in East 16.7 mph 16.7 mph 46 % 0.0 in 914.0 W/m2 CLR
14:29 28.2 °F 15.8 °F 1014.8 in ESE 19.3 mph 19.3 mph 47 % 0.0 in 916.0 W/m2 CLR
14:34 28.6 °F 15.1 °F 1014.8 in ESE 25.9 mph 25.9 mph 44 % 0.0 in 907.0 W/m2 CLR
14:35 28.6 °F 15.2 °F 1014.8 in ESE 20.9 mph 20.9 mph 44 % 0.0 in 904.0 W/m2 CLR
14:40 28.5 °F 15.1 °F 1014.4 in East 22.2 mph 22.2 mph 44 % 0.0 in 911.0 W/m2 CLR
14:45 28.6 °F 15.2 °F 1014.4 in East 20.4 mph 20.4 mph 44 % 0.0 in 907.0 W/m2 CLR
14:50 28.7 °F 15.3 °F 1014.4 in East 20.4 mph 20.4 mph 44 % 0.0 in 896.0 W/m2 CLR
14:55 28.7 °F 15.3 °F 1014.4 in East 20.4 mph 20.4 mph 44 % 0.0 in 881.0 W/m2 CLR
15:00 28.6 °F 15.1 °F 1014.4 in East 22.2 mph 22.2 mph 44 % 0.0 in 888.0 W/m2 CLR
15:05 28.8 °F 15.4 °F 1014.4 in ESE 25.9 mph 25.9 mph 44 % 0.0 in 882.0 W/m2 CLR
15:10 29.4 °F 15.1 °F 1014.4 in ESE 22.5 mph 22.5 mph 42 % 0.0 in 884.0 W/m2 CLR
15:15 29.3 °F 14.3 °F 1014.4 in ESE 35.2 mph 35.2 mph 40 % 0.0 in 881.0 W/m2 CLR
15:20 29.3 °F 14.7 °F 1014.4 in SE 18.5 mph 18.5 mph 41 % 0.0 in 872.0 W/m2 CLR
15:25 29.5 °F 14.5 °F 1014.4 in ESE 37.0 mph 37.0 mph 40 % 0.0 in 858.0 W/m2 CLR
15:30 29.1 °F 14.5 °F 1014.4 in East 33.3 mph 33.3 mph 41 % 0.0 in 863.0 W/m2 CLR
15:35 29.2 °F 15.0 °F 1014.4 in SSE 20.4 mph 20.4 mph 42 % 0.0 in 847.0 W/m2 CLR
15:40 29.2 °F 14.6 °F 1014.4 in ESE 27.8 mph 27.8 mph 41 % 0.0 in 823.0 W/m2 CLR
15:45 29.3 °F 14.7 °F 1014.4 in ESE 29.6 mph 29.6 mph 41 % 0.0 in 816.0 W/m2 CLR
15:50 29.3 °F 14.7 °F 1014.4 in SE 33.3 mph 33.3 mph 41 % 0.0 in 823.0 W/m2 CLR
15:55 29.1 °F 14.4 °F 1014.4 in ESE 27.8 mph 27.8 mph 41 % 0.0 in 824.0 W/m2 CLR
16:00 29.2 °F 14.6 °F 1014.4 in SSE 31.5 mph 31.5 mph 41 % 0.0 in 814.0 W/m2 CLR
16:05 29.4 °F 14.8 °F 1014.4 in ESE 24.1 mph 24.1 mph 41 % 0.0 in 807.0 W/m2 CLR
16:10 29.2 °F 14.2 °F 1014.1 in ESE 31.5 mph 31.5 mph 40 % 0.0 in 798.0 W/m2 CLR
16:15 29.2 °F 14.2 °F 1014.1 in ESE 32.2 mph 32.2 mph 40 % 0.0 in 786.0 W/m2 CLR
16:20 29.0 °F 14.4 °F 1014.1 in ESE 40.7 mph 40.7 mph 41 % 0.0 in 779.0 W/m2 CLR
16:25 29.2 °F 14.6 °F 1014.1 in ESE 22.2 mph 22.2 mph 41 % 0.0 in 765.0 W/m2 CLR
16:30 29.1 °F 14.1 °F 1014.1 in ESE 31.5 mph 31.5 mph 40 % 0.0 in 763.0 W/m2 CLR
16:35 28.9 °F 14.4 °F 1014.1 in ESE 31.5 mph 31.5 mph 41 % 0.0 in 752.0 W/m2 CLR
16:40 29.1 °F 14.5 °F 1014.1 in East 33.3 mph 33.3 mph 41 % 0.0 in 731.0 W/m2 CLR
16:45 28.8 °F 14.3 °F 1014.1 in ESE 31.5 mph 31.5 mph 41 % 0.0 in 728.0 W/m2 CLR
16:50 29.1 °F 14.5 °F 1014.1 in ESE 27.8 mph 27.8 mph 41 % 0.0 in 717.0 W/m2 CLR
16:55 29.3 °F 14.7 °F 1014.1 in ESE 20.9 mph 20.9 mph 41 % 0.0 in 700.0 W/m2 CLR
17:00 29.3 °F 14.3 °F 1014.1 in ESE 31.5 mph 31.5 mph 40 % 0.0 in 671.0 W/m2 CLR
17:05 28.8 °F 14.6 °F 1014.1 in SE 25.7 mph 25.7 mph 42 % 0.0 in 628.0 W/m2 CLR
17:10 28.8 °F 14.6 °F 1014.1 in ESE 25.7 mph 25.7 mph 42 % 0.0 in 631.0 W/m2 CLR
17:15 28.8 °F 14.6 °F 1014.1 in ESE 29.6 mph 29.6 mph 42 % 0.0 in 640.0 W/m2 CLR
17:16 28.7 °F 14.6 °F 1014.1 in ESE 29.6 mph 29.6 mph 42 % 0.0 in 640.0 W/m2 CLR
17:21 28.7 °F 14.6 °F 1014.1 in ESE 27.4 mph 27.4 mph 42 % 0.0 in 633.0 W/m2 CLR
17:26 28.8 °F 14.6 °F 1014.1 in ESE 29.0 mph 29.0 mph 42 % 0.0 in 631.0 W/m2 CLR
17:31 28.8 °F 14.6 °F 1014.1 in ESE 27.4 mph 27.4 mph 42 % 0.0 in 612.0 W/m2 CLR
17:36 28.9 °F 15.1 °F 1014.1 in SE 18.5 mph 18.5 mph 43 % 0.0 in 601.0 W/m2 CLR
17:41 28.7 °F 14.6 °F 1014.1 in SE 31.5 mph 31.5 mph 42 % 0.0 in 582.0 W/m2 CLR
17:46 28.7 °F 14.5 °F 1014.1 in SE 29.6 mph 29.6 mph 42 % 0.0 in 547.0 W/m2 CLR
17:49 28.6 °F 14.8 °F 1014.1 in SE 31.5 mph 31.5 mph 43 % 0.0 in 545.0 W/m2 CLR
17:53 28.3 °F 14.6 °F 1014.1 in ESE 27.8 mph 27.8 mph 43 % 0.0 in 541.0 W/m2 CLR
17:58 28.4 °F 14.6 °F 1014.1 in SE 31.5 mph 31.5 mph 43 % 0.0 in 531.0 W/m2 CLR
18:03 28.6 °F 14.4 °F 1014.1 in SE 27.8 mph 27.8 mph 42 % 0.0 in 512.0 W/m2 CLR
18:08 28.5 °F 14.7 °F 1013.8 in SE 27.8 mph 27.8 mph 43 % 0.0 in 483.0 W/m2 CLR
18:13 28.6 °F 14.8 °F 1014.1 in SE 22.2 mph 22.2 mph 43 % 0.0 in 450.0 W/m2 CLR
18:18 28.6 °F 14.4 °F 1013.8 in SE 25.9 mph 25.9 mph 42 % 0.0 in 452.0 W/m2 CLR
18:23 28.4 °F 14.2 °F 1013.8 in SE 24.1 mph 24.1 mph 42 % 0.0 in 454.0 W/m2 CLR
18:28 28.6 °F 14.1 °F 1013.8 in ESE 22.2 mph 22.2 mph 41 % 0.0 in 425.0 W/m2 CLR
18:33 28.5 °F 13.9 °F 1013.8 in SSE 24.1 mph 24.1 mph 41 % 0.0 in 417.0 W/m2 CLR
18:38 28.6 °F 14.1 °F 1013.8 in ESE 25.9 mph 25.9 mph 41 % 0.0 in 353.0 W/m2 CLR
18:43 28.3 °F 13.8 °F 1013.8 in ESE 25.9 mph 25.9 mph 41 % 0.0 in 373.0 W/m2 CLR
18:48 28.2 °F 14.1 °F 1013.8 in SE 20.4 mph 20.4 mph 42 % 0.0 in 329.0 W/m2 CLR
18:53 28.2 °F 13.7 °F 1013.8 in SE 24.1 mph 24.1 mph 41 % 0.0 in 345.0 W/m2 CLR
18:58 28.2 °F 13.7 °F 1013.8 in ESE 18.5 mph 18.5 mph 41 % 0.0 in 294.0 W/m2 CLR
19:03 28.1 °F 14.0 °F 1013.8 in ESE 18.5 mph 18.5 mph 42 % 0.0 in 295.0 W/m2 CLR
19:08 27.8 °F 13.7 °F 1013.8 in ESE 18.5 mph 18.5 mph 42 % 0.0 in 229.0 W/m2 CLR
19:13 27.8 °F 13.7 °F 1014.1 in ESE 16.7 mph 16.7 mph 42 % 0.0 in 172.0 W/m2 CLR
19:18 27.7 °F 13.2 °F 1014.1 in ESE 16.1 mph 16.1 mph 41 % 0.0 in 214.0 W/m2 CLR
19:23 27.4 °F 13.4 °F 1014.1 in ESE 22.2 mph 22.2 mph 42 % 0.0 in 211.0 W/m2 CLR
19:28 27.3 °F 13.3 °F 1014.1 in SE 18.5 mph 18.5 mph 42 % 0.0 in 287.0 W/m2 CLR
19:33 27.4 °F 13.3 °F 1014.1 in SE 20.4 mph 20.4 mph 42 % 0.0 in 239.0 W/m2 CLR
19:38 27.3 °F 13.3 °F 1014.1 in ESE 19.3 mph 19.3 mph 42 % 0.0 in 269.0 W/m2 CLR
19:43 27.2 °F 13.2 °F 1014.1 in SE 18.5 mph 18.5 mph 42 % 0.0 in 255.0 W/m2 CLR
19:48 27.3 °F 13.2 °F 1014.4 in SE 11.3 mph 11.3 mph 42 % 0.0 in 176.0 W/m2 CLR
19:53 27.3 °F 13.2 °F 1014.4 in SE 18.5 mph 18.5 mph 42 % 0.0 in 202.0 W/m2 CLR
19:58 27.2 °F 13.2 °F 1014.4 in SSE 12.9 mph 12.9 mph 42 % 0.0 in 193.0 W/m2 CLR
20:03 27.2 °F 13.2 °F 1014.4 in SE 19.3 mph 19.3 mph 42 % 0.0 in 151.0 W/m2 CLR
20:08 27.0 °F 13.7 °F 1014.4 in SE 14.5 mph 14.5 mph 44 % 0.0 in 128.0 W/m2 CLR
20:13 26.8 °F 13.2 °F 1014.4 in SE 13.0 mph 13.0 mph 43 % 0.0 in 84.0 W/m2 CLR
20:18 26.7 °F 13.1 °F 1014.4 in SSE 16.7 mph 16.7 mph 43 % 0.0 in 56.0 W/m2 FEW
20:23 26.6 °F 12.6 °F 1014.8 in ESE 18.5 mph 18.5 mph 42 % 0.0 in 46.0 W/m2 SCT
20:28 26.4 °F 12.8 °F 1014.8 in SE 13.0 mph 13.0 mph 43 % 0.0 in 40.0 W/m2 BKN
20:33 26.3 °F 13.1 °F 1014.8 in SE 11.1 mph 11.1 mph 44 % 0.0 in 33.0 W/m2 BKN
20:38 26.1 °F 12.9 °F 1014.8 in SE 14.8 mph 14.8 mph 44 % 0.0 in 26.0 W/m2 BKN
20:43 25.9 °F 13.1 °F 1014.8 in SE 13.0 mph 13.0 mph 45 % 0.0 in 21.0 W/m2 BKN
20:49 25.8 °F 12.9 °F 1015.1 in SE 9.7 mph 9.7 mph 45 % 0.0 in 18.0 W/m2 BKN
20:54 25.7 °F 12.8 °F 1015.1 in SE 13.0 mph 13.0 mph 45 % 0.0 in 14.0 W/m2 BKN
20:59 25.5 °F 13.1 °F 1015.1 in SE 8.0 mph 8.0 mph 46 % 0.0 in 11.0 W/m2 BKN
21:04 25.3 °F 12.9 °F 1015.1 in SSE 6.4 mph 6.4 mph 46 % 0.0 in 7.0 W/m2 BKN
21:09 25.2 °F 13.1 °F 1015.1 in SSE 7.4 mph 7.4 mph 47 % 0.0 in 5.0 W/m2 BKN
21:14 24.9 °F 12.8 °F 1015.1 in SE 9.3 mph 9.3 mph 47 % 0.0 in 0.0 W/m2 OVC
21:19 24.7 °F 13.9 °F 1015.1 in ENE 3.7 mph 3.7 mph 51 % 0.0 in 0.0 W/m2 OVC
21:24 24.2 °F 14.3 °F 1015.1 in Calm     54 % 0.0 in 0.0 W/m2 OVC
21:29 23.6 °F 14.3 °F 1015.5 in East 8.0 mph 8.0 mph 56 % 0.0 in 0.0 W/m2 OVC
21:34 23.3 °F 14.3 °F 1015.5 in ESE 1.6 mph   57 % 0.0 in 0.0 W/m2 CLR
21:39 23.1 °F 14.4 °F 1015.5 in Calm     58 % 0.0 in 0.0 W/m2 CLR
21:44 22.9 °F 14.4 °F 1015.5 in East 5.6 mph   59 % 0.0 in 0.0 W/m2 CLR
21:49 22.6 °F 14.7 °F 1015.5 in East 5.6 mph 5.6 mph 61 % 0.0 in 0.0 W/m2 CLR
21:54 22.2 °F 14.8 °F 1015.8 in East 5.6 mph   63 % 0.0 in 0.0 W/m2 CLR
21:59 21.9 °F 14.8 °F 1015.8 in East 3.7 mph   64 % 0.0 in 0.0 W/m2 CLR
22:04 21.7 °F 14.8 °F 1015.8 in East 5.6 mph 5.6 mph 65 % 0.0 in 0.0 W/m2 CLR
22:09 21.6 °F 14.7 °F 1016.1 in ESE 9.3 mph 9.3 mph 65 % 0.0 in 0.0 W/m2 CLR
22:14 21.5 °F 14.9 °F 1016.1 in East 9.3 mph 9.3 mph 66 % 0.0 in 0.0 W/m2 CLR
22:19 21.3 °F 14.9 °F 1016.1 in ESE 7.4 mph   67 % 0.0 in 0.0 W/m2 CLR
22:24 21.2 °F 15.0 °F 1016.5 in ESE 6.4 mph 6.4 mph 68 % 0.0 in 0.0 W/m2 CLR
22:29 21.1 °F 15.2 °F 1016.5 in SE 11.1 mph 11.1 mph 69 % 0.0 in 0.0 W/m2 CLR
22:34 20.9 °F 15.2 °F 1016.5 in ESE 9.3 mph 9.3 mph 70 % 0.0 in 0.0 W/m2 CLR
22:39 20.8 °F 15.1 °F 1016.5 in Calm     70 % 0.0 in 0.0 W/m2 CLR
22:44 20.7 °F 15.0 °F 1016.5 in ESE 5.6 mph 5.6 mph 70 % 0.0 in 0.0 W/m2 CLR
22:49 20.6 °F 15.1 °F 1016.5 in ESE 11.1 mph 11.1 mph 71 % 0.0 in 0.0 W/m2 CLR
22:54 20.5 °F 15.1 °F 1016.5 in ESE 5.6 mph 5.6 mph 71 % 0.0 in 0.0 W/m2 CLR
23:04 20.4 °F 15.0 °F 1016.5 in ESE 7.4 mph 7.4 mph 71 % 0.0 in 0.0 W/m2 CLR
23:09 20.4 °F 15.0 °F 1016.5 in ESE 6.4 mph 6.4 mph 71 % 0.0 in 0.0 W/m2 CLR
23:14 20.4 °F 14.9 °F 1016.5 in ESE 1.6 mph   71 % 0.0 in 0.0 W/m2 CLR
23:19 20.4 °F 14.9 °F 1016.5 in Calm     71 % 0.0 in 0.0 W/m2 CLR
23:24 20.3 °F 14.8 °F 1016.5 in Calm     71 % 0.0 in 0.0 W/m2 CLR
23:29 20.1 °F 14.9 °F 1016.5 in Calm     72 % 0.0 in 0.0 W/m2 CLR
23:34 19.9 °F 14.7 °F 1016.5 in Calm     72 % 0.0 in 0.0 W/m2 CLR
23:39 19.8 °F 14.8 °F 1016.8 in Calm     73 % 0.0 in 0.0 W/m2 CLR
23:44 19.7 °F 14.9 °F 1016.8 in Calm     74 % 0.0 in 0.0 W/m2 CLR
23:49 19.7 °F 14.9 °F 1016.8 in Calm     74 % 0.0 in 0.0 W/m2 CLR
23:54 19.6 °F 15.1 °F 1016.8 in Calm     75 % 0.0 in 0.0 W/m2 CLR
23:59 19.6 °F 15.0 °F 1016.8 in Calm     75 % 0.0 in 0.0 W/m2 CLR
Lo Temps de Massalio
Compliments of Weather Underground - 1.25 mb